Regional Weather Roundup
Issued by NWS

Home | Current Version | Previous Version | Graphics & Text | Print | Product List | Glossary Off
Versions: 1 2 3 4 5 6 7 8 9 10 11 12 13 14 15 16 17 18 19 20 21 22 23 24 25 26 27 28 29 30 31 32 33 34 35 36 37 38 39 40 41 42 43 44 45 46 47 48 49 50

000
ASUS43 KLSX 242310
RWRMO

WEATHER SUMMARY FOR MISSOURI
NATIONAL WEATHER SERVICE SPRINGFIELD MO
600 PM CDT MON APR 24 2017

NOTE: "FAIR" INDICATES FEW OR NO CLOUDS BELOW 12,000 FEET WITH NO
       SIGNIFICANT WEATHER AND/OR OBSTRUCTIONS TO VISIBILITY.
       CURRENT SKY AND/OR WEATHER CONDITIONS ARE NOT AVAILABLE FOR
       CHILLICOTHE AND FARMINGTON.

MOZ001>031-035>038-043-044-053-054-250000-
...NORTHERN AND WESTERN MISSOURI...

CITY           SKY/WX    TMP DP  RH WIND       PRES   REMARKS
KANSAS CTY INT MOSUNNY   73  41  31 S16G29    29.60F
KANSAS C DTWN  SUNNY     76  37  24 S18G28    29.60F
LEE`S SUMMIT   SUNNY     75  36  24 S16G28    29.63F
ST JOSEPH      SUNNY     75  39  27 S21G29    29.59S
CHILLICOTHE      N/A     77  28  16 S13G25    29.62F
KIRKSVILLE     CLOUDY    73  31  21 SE18G28   29.65F

$$
MOZ066>068-077>081-088>096-101>105-250000-
...SOUTHWEST MISSOURI...

CITY           SKY/WX    TMP DP  RH WIND       PRES   REMARKS
SPRINGFIELD    SUNNY     74  34  23 SE17      29.67F
JOPLIN         SUNNY     75  38  26 S10       29.64F
BRANSON        MOSUNNY   75  39  27 SE10G17   29.71F

$$
MOZ032>034-039>042-045>050-055>058-069>072-250000-
...CENTRAL MISSOURI...

CITY           SKY/WX    TMP DP  RH WIND       PRES   REMARKS
COLUMBIA       SUNNY     76  31  19 S15       29.69F
JEFFERSON CITY SUNNY     80  30  16 SE10      29.67F
ROLLA          SUNNY     75  34  22 S9        29.70F
SEDALIA        CLOUDY    77  31  18 S13       29.66F
WHITEMAN AFB   MOSUNNY   75  34  22 S20       29.63S
OSAGE BEACH    SUNNY     77  34  21 S13G18    29.69F

$$
MOZ051-052-059>065-250000-
...EAST CENTRAL MISSOURI...

CITY           SKY/WX    TMP DP  RH WIND       PRES   REMARKS
ST LOUIS INTL  PTSUNNY   75  34  22 SE6       29.75F
SPIRIT OF STL  SUNNY     75  36  24 E10       29.73F
ST CHARLES     SUNNY     76  30  18 SE13      29.73F

$$
MOZ072>076-082>087-097>100-106>115-250000-
...SOUTH CENTRAL AND SOUTHEAST MISSOURI...

CITY           SKY/WX    TMP DP  RH WIND       PRES   REMARKS
CAPE GIRARDEAU SUNNY     74  47  38 SE5       29.73F
FARMINGTON     SUNNY     72  46  39 E7        29.75F
POPLAR BLUFF   SUNNY     73  55  53 S7        29.74F
WEST PLAINS    SUNNY     74  35  24 SE8       29.76F

$$




USA.gov is the U.S. government's official web portal to all federal, state and local government web resources and services.